Regional Weather Roundup
Issued by NWS

Home | Current Version | Previous Version | Text Only | Print | Product List | Glossary On
Versions: 1 2 3 4 5 6 7 8 9 10 11 12 13 14 15 16 17 18 19 20 21 22 23 24 25 26 27 28 29 30 31 32 33 34 35 36 37 38 39 40 41 42 43 44 45 46 47 48 49 50
000
ASUS43 KLMK 291402
RWRKY
KENTUCKY REGIONAL WEATHER ROUNDUP
NATIONAL WEATHER SERVICE LOUISVILLE KY
1000 AM EDT TUE JUL 29 2014

NOTE "FAIR" INDICATES FEW OR NO CLOUDS BELOW 12,000 FEET
WITH NO SIGNIFICANT WEATHER AND/OR OBSTRUCTIONS TO VISIBILITY.

KYZ001>023-026-027-061>063-070>075-291500-
WESTERN AND SOUTH CENTRAL KENTUCKY

CITY           SKY/WX    TMP DP  RH WIND       PRES   REMARKS
PADUCAH        SUNNY     70  55  59 NW6       30.13S
HENDERSON      SUNNY     66  54  63 NW8       30.11S
OWENSBORO      SUNNY     65  51  60 N6        30.11F
HOPKINSVILLE   SUNNY     68  51  55 N8        30.12R
BOWLING GREEN  SUNNY     66  50  56 N8        30.10S
GLASGOW        SUNNY     61  50  65 NW9G17    30.10S
$$

KYZ024-025-028>034-038-045-046-053-291500-
NORTH CENTRAL KENTUCKY

CITY           SKY/WX    TMP DP  RH WIND       PRES   REMARKS
LOUISVILLE/SDF MOSUNNY   65  51  60 VRB6      30.09R
LOUISVILLE/LOU SUNNY     63  50  62 NW8       30.09S
FORT KNOX      SUNNY     62  52  70 VRB3      30.09R
$$

KYZ035>037-039>044-047>052-055>060-089>105-291500-
NORTHEAST KENTUCKY

CITY           SKY/WX    TMP DP  RH WIND       PRES   REMARKS
LEXINGTON      SUNNY     61  53  75 NW8       30.07S
COVINGTON      MOSUNNY   60  53  77 N6        30.07R
FRANKFORT      SUNNY     59  52  77 NW5       30.07R
$$

KYZ054-064>069-076>088-106>120-291500-
SOUTHEAST KENTUCKY

CITY           SKY/WX    TMP DP  RH WIND       PRES   REMARKS
JACKSON        PTSUNNY   60  53  77 CALM      30.06R
LONDON         SUNNY     63  53  70 W6        30.06S
SOMERSET       NOT AVBL
MIDDLESBORO    PTSUNNY   64  55  73 CALM      30.06S
MONTICELLO     SUNNY     65  53  65 N6        30.09S
$$




USA.gov is the U.S. government's official web portal to all federal, state and local government web resources and services.